Location: Bacharowice
(49.9333°N, 19.5833°E)
Time: 15:23:04
(UTC+00:00)

SOZ - Pass Details

Date: 02 October 2021
Orbit: 307 x 16684 km, 52.1° (Epoch: 28 October)

Event Time Altitude Azimuth Distance (km) Brightness Sun altitude
Rises 20:20:38 0° 154° (SSE) 21,994 12.9 -36.4°
Enters shadow 20:42:26 - 151° (SSE) 20,459 12.7 -38.6°
Exits shadow 21:39:47 23° 130° (SE) 12,564 11.7 -42.7°
Maximum altitude 21:52:15 25° 117° (ESE) 10,145 11.3 -43.3°
Drops below altitude 10° 22:12:09 10° 75° (ENE) 6,913 10.9 -43.8°
Sets 22:16:38 0° 62° (ENE) 6,741 11.1 -43.9°
